COSMOS 1833

Last updated on Wed Sep 17 2025 00:02:14 GMT+0000 (Coordinated Universal Time)

1 17589U 87027A 25259.57427716 -.00000133 00000+0 -45281-4 0 9998 2 17589 70.9232 331.9992 0019537 104.5272 255.8018 14.13043528985717
UTC large
Height (km)
Speed (km/s)
/
Latitude / Longitude
Inclination (degrees)
Orbital Period (minutes)
Azimuth
Elevation
Range (km)
Doppler Factor

Next 0 passes for location: London (51.5072 / 0.1276)

Sorry there are no passes over London.